Paso Robles, CA

2:43 AM PST on December 06, 2019 (GMT -0800)
Paso Robles Municipal

Weather History for KPRB - October, 2019

Change the Weather History Date:

Wednesday, October 2, 2019

  Actual Average Record
Temperature  
Mean Temperature 57 °F 66 °F  
Max Temperature 79 °F 84 °F 105 °F (2012)
Min Temperature 35 °F 48 °F 35 °F (1971)
Degree Days  
Heating Degree Days 8 2  
Month to date heating degree days 17 4  
Since 1 July heating degree days 43 36  
Cooling Degree Days 0 3  
Month to date cooling degree days 0 6  
Year to date cooling degree days 1035 897  
Growing Degree Days 7 (Base 50)    
Moisture  
Dew Point 33 °F    
Average Humidity 46    
Maximum Humidity 79    
Minimum Humidity 16    
Precipitation  
Precipitation 0.00 in 0.01 in 0.04 in (1956)
Month to date precipitation 0.00 0.02  
Year to date precipitation 11.28 9.14  
Sea Level Pressure  
Sea Level Pressure 29.98 in    
Wind  
Wind Speed 3 mph ()    
Max Wind Speed 17 mph    
Max Gust Speed 21 mph    
Visibility 10.0 miles    
Events      
T = Trace of Precipitation, MM = Missing Value Source: Averaged Metar Reports

Daily Weather History Graph

Daily Weather History Graph

Search for Another Location

Airport or City:

Astronomy

Oct. 02, 2019 Rise Set
Actual Time 6:58 AM PDT 6:44 PM PDT
Civil Twilight 6:32 AM PDT 7:10 PM PDT
Nautical Twilight 6:03 AM PDT 7:39 PM PDT
Astronomical Twilight 5:33 AM PDT 8:09 PM PDT
Moon 11:21 AM PDT (10/2) 9:51 PM PDT (10/2)
Length of Visible Light 12h 37m
Length of Day
11h 46m
Waxing Crescent, 21% of the Moon is Illuminated
Oct 2
Waxing Crescent
Oct 5
First Quarter
Oct 13
Full
Oct 21
Last Quarter
Oct 27
New

Hourly Weather History & Observations

Time (PDT) Temp. Windchill Dew Point Humidity Pressure Visibility Wind Dir Wind Speed Gust Speed Precip Events Conditions
12:53 AM 46.0 °F 43.9 °F 37.0 °F 71% 29.99 in 10.0 mi East 4.6 mph - N/A   Clear
1:53 AM 45.0 °F - 36.0 °F 71% 29.99 in 10.0 mi Calm Calm - N/A   Clear
2:53 AM 41.0 °F - 34.0 °F 76% 30.00 in - Calm Calm - N/A   Clear
3:53 AM 39.9 °F - 34.0 °F 79% 30.00 in - Calm Calm - N/A   Clear
4:53 AM 39.9 °F - 34.0 °F 79% 30.00 in - Calm Calm - N/A   Clear
5:53 AM 37.0 °F - 30.9 °F 79% 30.01 in - Calm Calm - N/A   Clear
6:53 AM 37.0 °F - 30.9 °F 79% 30.03 in - Calm Calm - N/A   Clear
7:53 AM 39.0 °F - 32.0 °F 76% 30.04 in - Calm Calm - N/A   Clear
8:53 AM 48.9 °F - 35.1 °F 59% 30.05 in 10.0 mi Calm Calm - N/A   Clear
9:53 AM 55.9 °F - 39.0 °F 53% 30.04 in 10.0 mi Calm Calm - N/A   Clear
10:53 AM 63.0 °F - 37.0 °F 38% 30.03 in 10.0 mi Variable 3.5 mph - N/A   Clear
11:53 AM 72.0 °F - 36.0 °F 27% 29.99 in 10.0 mi North 8.1 mph - N/A   Clear
12:28 PM 73.0 °F - 33.1 °F 23% 29.99 in 10.0 mi ESE 10.4 mph - N/A   Clear
12:53 PM 75.9 °F - 32.0 °F 20% 29.97 in 10.0 mi ESE 12.7 mph - N/A   Clear
1:53 PM 77.0 °F - 32.0 °F 19% 29.95 in 10.0 mi ENE 11.5 mph - N/A   Clear
2:53 PM 77.0 °F - 30.9 °F 19% 29.93 in 10.0 mi Variable 3.5 mph - N/A   Clear
3:53 PM 78.1 °F - 30.9 °F 18% 29.92 in 10.0 mi SE 4.6 mph - N/A   Clear
4:53 PM 79.0 °F - 28.9 °F 16% 29.91 in 10.0 mi NNE 3.5 mph - N/A   Clear
5:53 PM 77.0 °F - 30.0 °F 18% 29.91 in 10.0 mi East 4.6 mph - N/A   Clear
6:53 PM 71.1 °F - 30.0 °F 22% 29.92 in 10.0 mi East 6.9 mph - N/A   Clear
7:53 PM 66.0 °F - 32.0 °F 28% 29.94 in 10.0 mi Calm Calm - N/A   Clear
8:53 PM 62.1 °F - 37.0 °F 39% 29.96 in 10.0 mi WNW 8.1 mph - N/A   Clear
9:53 PM 57.9 °F - 36.0 °F 44% 29.97 in 10.0 mi NNW 3.5 mph - N/A   Clear
10:53 PM 55.0 °F - 36.0 °F 49% 29.98 in 10.0 mi Calm Calm - N/A   Clear
11:53 PM 48.0 °F - 32.0 °F 54% 29.98 in 10.0 mi Calm Calm - N/A   Clear